Location: Courcelles
(49.2596°N, 1.7419°E)
Time: 06:41:50
(UTC+00:00)

PSLV R/B - Pass Details

Date: 17 November 2025
Orbit: 561 x 589 km, 98.0° (Epoch: 10 December)

Event Time Altitude Azimuth Distance (km) Brightness Sun altitude
Rises 17:47:12 0° 150° (SSE) 2,760 6.7 -15.9°
Reaches altitude 10° 17:49:23 10° 144° (SE) 1,864 5.8 -16.2°
Maximum altitude 17:53:15 48° 71° (ENE) 750 3.5 -16.8°
Drops below altitude 10° 17:57:08 10° 357° (N) 1,868 6.0 -17.5°
Sets 17:59:19 0° 351° (N) 2,767 6.9 -17.8°
